"Period start","avg(HW err(1)/warn(2) (#))","avg(Visibility (m))","avg(Weather code (#))","avg(Precip intensity (mm/h))","min(HW err(1)/warn(2) (#))","max(HW err(1)/warn(2) (#))","std(HW err(1)/warn(2) (#))","med(HW err(1)/warn(2) (#))","min(Visibility (m))","max(Visibility (m))","std(Visibility (m))","med(Visibility (m))","min(Weather code (#))","max(Weather code (#))","std(Weather code (#))","med(Weather code (#))","min(Precip intensity (mm/h))","max(Precip intensity (mm/h))","std(Precip intensity (mm/h))","med(Precip intensity (mm/h))"
2013-10-12 00:00:00,2,24685,0,0.00,2,2,0,2,21296,29073,2462,24936,0,0,0,0,0.00,0.00,0.00,0.00
2013-10-12 00:10:00,2,25518,0,0.00,2,2,0,2,18171,34195,5453,25996,0,0,0,0,0.00,0.00,0.00,0.00
2013-10-12 00:20:00,2,43486,0,0.00,2,2,0,2,35459,50000,5408,43326,0,0,0,0,0.00,0.00,0.00,0.00
2013-10-12 00:30:00,2,42307,0,0.00,2,2,0,2,37915,47597,3170,42756,0,0,0,0,0.00,0.00,0.00,0.00
2013-10-12 00:40:00,2,41269,0,0.00,2,2,0,2,31079,48296,6039,40438,0,0,0,0,0.00,0.00,0.00,0.00
2013-10-12 00:50:00,2,42594,0,0.00,2,2,0,2,32033,47240,5162,44886,0,0,0,0,0.00,0.00,0.00,0.00
2013-10-12 01:00:00,2,36473,0,0.00,2,2,0,2,19480,47622,9539,39740,0,0,0,0,0.00,0.00,0.00,0.00
2013-10-12 01:10:00,2,30432,7,0.00,2,2,0,2,16538,43265,7988,29519,0,71,21,0,0.00,0.00,0.00,0.00
2013-10-12 01:20:00,2,18321,11,0.00,2,2,0,2,12775,29836,5932,15810,0,71,23,0,0.00,0.00,0.00,0.00
2013-10-12 01:30:00,2,18311,0,0.00,2,2,0,2,13850,26596,3646,17122,0,0,0,0,0.00,0.00,0.00,0.00
2013-10-12 01:40:00,2,41247,0,0.00,2,2,0,2,30484,50000,7636,41178,0,0,0,0,0.00,0.00,0.00,0.00
2013-10-12 01:50:00,2,46781,0,0.00,2,2,0,2,37868,50000,4125,48810,0,0,0,0,0.00,0.00,0.00,0.00
2013-10-12 02:00:00,2,48294,0,0.00,2,2,0,2,40941,50000,2651,49302,0,0,0,0,0.00,0.00,0.00,0.00
2013-10-12 02:10:00,2,42611,0,0.00,2,2,0,2,37827,46164,2137,42400,0,0,0,0,0.00,0.00,0.00,0.00
2013-10-12 02:20:00,2,44887,0,0.00,2,2,0,2,37304,50000,3870,45390,0,0,0,0,0.00,0.00,0.00,0.00
2013-10-12 02:30:00,2,34435,0,0.00,2,2,0,2,15205,50000,10330,37698,0,0,0,0,0.00,0.00,0.00,0.00
2013-10-12 02:40:00,2,37210,0,0.00,2,2,0,2,25447,44167,5654,38810,0,0,0,0,0.00,0.00,0.00,0.00
2013-10-12 02:50:00,2,43265,0,0.00,2,2,0,2,33535,50000,5476,43178,0,0,0,0,0.00,0.00,0.00,0.00
2013-10-12 03:00:00,2,40093,0,0.00,2,2,0,2,35017,44813,3010,39247,0,0,0,0,0.00,0.00,0.00,0.00
2013-10-12 03:10:00,2,43306,0,0.00,2,2,0,2,34576,49533,4782,44361,0,0,0,0,0.00,0.00,0.00,0.00
2013-10-12 03:20:00,2,45076,0,0.00,2,2,0,2,36740,50000,4187,46198,0,0,0,0,0.00,0.00,0.00,0.00
2013-10-12 03:30:00,2,46609,0,0.00,2,2,0,2,42126,50000,2954,47203,0,0,0,0,0.00,0.00,0.00,0.00
2013-10-12 03:40:00,2,44647,0,0.00,2,2,0,2,40432,50000,3040,44307,0,0,0,0,0.00,0.00,0.00,0.00
2013-10-12 03:50:00,2,42872,0,0.00,2,2,0,2,29711,50000,5943,43554,0,0,0,0,0.00,0.00,0.00,0.00
2013-10-12 04:00:00,2,29588,12,0.02,2,2,0,2,17670,50000,12225,23944,0,41,19,0,0.00,0.10,0.03,0.00
2013-10-12 04:10:00,2,6752,68,0.11,2,2,0,2,4745,9425,1479,6960,41,71,9,71,0.00,0.30,0.09,0.10
2013-10-12 04:20:00,2,10334,72,0.07,2,2,0,2,6586,12447,1793,10686,71,77,2,71,0.00,0.65,0.19,0.00
2013-10-12 04:30:00,2,11339,75,0.01,2,2,0,2,7074,15185,2445,11698,71,77,3,77,0.00,0.05,0.02,0.00
2013-10-12 04:40:00,2,14942,57,0.04,2,2,0,2,7828,23064,4718,15074,0,77,29,71,0.00,0.15,0.05,0.00
2013-10-12 04:50:00,2,9814,76,0.04,2,2,0,2,5246,13471,2872,9732,71,77,2,77,0.00,0.10,0.03,0.05
2013-10-12 05:00:00,2,12180,77,0.07,2,2,0,2,4824,21766,6449,10059,77,77,0,77,0.00,0.15,0.06,0.08
2013-10-12 05:10:00,2,20908,73,0.04,2,2,0,2,8025,39727,11046,17809,71,77,3,71,0.00,0.15,0.05,0.00
2013-10-12 05:20:00,2,21879,71,0.06,2,2,0,2,11879,33613,5852,22976,71,71,0,71,0.00,0.20,0.07,0.03
2013-10-12 05:30:00,2,25791,43,0.03,2,2,0,2,14334,32449,5314,26936,0,71,35,71,0.00,0.25,0.07,0.00
2013-10-12 05:40:00,2,8190,73,0.12,2,2,0,2,3874,16896,4114,6700,71,77,3,71,0.05,0.25,0.07,0.10
2013-10-12 05:50:00,2,5618,71,0.21,2,2,0,2,3541,7440,1042,5728,71,71,0,71,0.10,0.55,0.13,0.20
2013-10-12 06:00:00,2,2574,71,0.88,2,2,0,2,1823,3240,425,2586,71,71,0,71,0.35,1.45,0.31,0.85
2013-10-12 06:10:00,2,4084,71,0.93,2,2,0,2,2933,5923,821,3880,71,71,0,71,0.45,1.55,0.32,0.95
2013-10-12 06:20:00,2,6947,71,0.47,2,2,0,2,3350,12463,3280,5801,71,71,0,71,0.05,1.45,0.41,0.42
2013-10-12 06:30:00,2,2718,71,1.11,2,2,0,2,2082,3729,588,2450,71,71,0,71,0.20,2.20,0.55,1.00
2013-10-12 06:40:00,2,3386,71,0.82,2,2,0,2,2111,5024,935,3336,71,71,0,71,0.30,1.85,0.40,0.75
2013-10-12 06:50:00,2,3514,71,1.20,2,2,0,2,1838,6043,1538,2872,71,71,0,71,0.30,3.00,0.75,1.05
2013-10-12 07:00:00,2,15015,71,0.17,2,2,0,2,4825,28622,7819,14504,71,71,0,71,0.00,0.80,0.25,0.03
2013-10-12 07:10:00,2,16750,71,0.11,2,2,0,2,9300,28175,5578,17062,71,71,0,71,0.00,0.30,0.09,0.08
2013-10-12 07:20:00,2,24146,43,0.04,2,2,0,2,9040,41340,10139,22808,0,71,35,71,0.00,0.15,0.06,0.00
2013-10-12 07:30:00,2,8485,71,0.25,2,2,0,2,4898,27033,6464,5786,71,71,0,71,0.00,0.55,0.18,0.28
2013-10-12 07:40:00,2,6107,71,0.30,2,2,0,2,4999,8021,950,5910,71,71,0,71,0.05,0.50,0.12,0.30
2013-10-12 07:50:00,2,6665,71,0.35,2,2,0,2,3616,9474,1882,6522,71,71,0,71,0.15,0.50,0.11,0.33
2013-10-12 08:00:00,2,3763,71,0.67,2,2,0,2,2992,4162,363,3869,71,71,0,71,0.35,1.00,0.19,0.70
2013-10-12 08:10:00,2,4545,71,0.53,2,2,0,2,2646,9268,1890,4058,71,71,0,71,0.25,1.00,0.27,0.47
2013-10-12 08:20:00,2,6485,71,0.42,2,2,0,2,3970,10026,1734,6800,71,71,0,71,0.05,0.90,0.22,0.40
2013-10-12 08:30:00,2,13411,71,0.05,2,2,0,2,8718,19005,3660,14042,71,71,0,71,0.00,0.15,0.04,0.05
2013-10-12 08:40:00,2,14280,75,0.13,2,2,0,2,4024,22240,5649,14868,71,78,3,77,0.00,0.55,0.16,0.08
2013-10-12 08:50:00,2,5401,71,0.54,2,2,0,2,3125,8082,1523,5014,71,71,0,71,0.10,1.15,0.31,0.47
2013-10-12 09:00:00,2,3239,71,1.21,2,2,0,2,2171,4337,666,3079,71,71,0,71,0.80,1.95,0.32,1.18
2013-10-12 09:10:00,2,3157,71,0.92,2,2,0,2,2618,3537,291,3202,71,71,0,71,0.50,1.50,0.30,0.88
2013-10-12 09:20:00,2,2594,71,0.97,2,2,0,2,2127,3294,309,2600,71,71,0,71,0.40,1.50,0.29,0.98
2013-10-12 09:30:00,2,2992,71,0.65,2,2,0,2,1959,4127,622,3070,71,71,0,71,0.30,1.20,0.24,0.62
2013-10-12 09:40:00,2,2610,71,1.23,2,2,0,2,1569,3916,953,2328,71,71,0,71,0.50,2.40,0.65,0.95
2013-10-12 09:50:00,2,2153,71,1.56,2,2,0,2,1715,2642,314,2194,71,71,0,71,0.85,2.75,0.53,1.45
2013-10-12 10:00:00,2,1715,71,1.91,2,2,0,2,1269,2178,329,1710,71,71,0,71,1.15,2.75,0.44,1.95
2013-10-12 10:10:00,2,1364,71,2.02,2,2,0,2,1172,1653,141,1380,71,71,0,71,1.15,3.15,0.62,2.00
2013-10-12 10:20:00,2,1005,72,3.86,2,2,0,2,645,1339,206,1006,71,72,0,72,1.60,7.75,1.77,3.70
2013-10-12 10:30:00,2,792,72,3.44,2,2,0,2,564,1117,184,754,72,72,0,72,1.50,6.05,1.42,3.23
2013-10-12 10:40:00,2,1122,71,2.09,2,2,0,2,951,1334,93,1104,71,72,0,71,1.15,3.20,0.53,2.05
2013-10-12 10:50:00,2,802,72,3.58,2,2,0,2,638,1119,143,752,72,72,0,72,1.85,4.50,0.69,3.70
2013-10-12 11:00:00,2,1771,71,1.91,2,2,0,2,961,2794,605,1628,71,72,0,71,1.30,2.55,0.39,2.02
2013-10-12 11:10:00,2,5739,71,0.80,2,2,0,2,1470,13501,4235,4084,71,71,0,71,0.00,2.10,0.75,0.55
2013-10-12 11:20:00,2,17169,65,0.16,2,2,0,2,5194,28010,6593,15986,41,71,12,71,0.00,0.95,0.30,0.03
2013-10-12 11:30:00,2,22865,68,0.10,2,2,0,2,8941,41685,11030,18843,41,71,9,71,0.00,0.35,0.12,0.05
2013-10-12 11:40:00,2,41462,25,0.01,2,2,0,2,19549,50000,10362,44554,0,71,32,0,0.00,0.10,0.03,0.00
2013-10-12 11:50:00,2,43459,47,0.01,2,2,0,2,21319,50000,8688,46524,0,71,32,71,0.00,0.15,0.05,0.00
2013-10-12 12:00:00,2,46615,0,0.00,2,2,0,2,39300,50000,3202,47368,0,0,0,0,0.00,0.00,0.00,0.00
2013-10-12 12:10:00,2,49494,0,0.00,2,2,0,2,46972,50000,1037,50000,0,0,0,0,0.00,0.00,0.00,0.00
2013-10-12 12:20:00,2,49308,0,0.00,2,2,0,2,48156,50000,762,49736,0,0,0,0,0.00,0.00,0.00,0.00
2013-10-12 12:30:00,2,49604,0,0.00,2,2,0,2,47037,50000,887,50000,0,0,0,0,0.00,0.00,0.00,0.00
2013-10-12 12:40:00,2,47238,0,0.00,2,2,0,2,37876,50000,3828,49115,0,0,0,0,0.00,0.00,0.00,0.00
2013-10-12 12:50:00,2,47813,0,0.00,2,2,0,2,37831,50000,3731,50000,0,0,0,0,0.00,0.00,0.00,0.00
2013-10-12 13:00:00,2,39660,7,0.00,2,2,0,2,8878,50000,13347,44834,0,71,21,0,0.00,0.00,0.00,0.00
2013-10-12 13:10:00,2,2584,71,0.79,2,2,0,2,1291,4898,1308,1780,71,71,0,71,0.10,1.70,0.56,0.52
2013-10-12 13:20:00,2,21939,73,0.04,2,2,0,2,7656,40341,10903,20650,71,77,3,72,0.00,0.10,0.05,0.03
2013-10-12 13:30:00,2,49778,8,0.00,2,2,0,2,48437,50000,488,50000,0,77,23,0,0.00,0.00,0.00,0.00
2013-10-12 13:40:00,2,43428,0,0.00,2,2,0,2,31304,50000,6364,44400,0,0,0,0,0.00,0.00,0.00,0.00
2013-10-12 13:50:00,2,17834,71,0.08,2,2,0,2,10224,21401,3313,18670,71,71,0,71,0.00,0.30,0.09,0.05
2013-10-12 14:00:00,2,29225,75,0.00,2,2,0,2,24473,33672,3029,29117,71,78,3,77,0.00,0.00,0.00,0.00
2013-10-12 14:10:00,2,38215,78,0.00,2,2,0,2,34960,42474,2688,37151,78,78,0,78,0.00,0.00,0.00,0.00
2013-10-12 14:20:00,2,47085,8,0.00,2,2,0,2,42925,50000,2398,47880,0,78,23,0,0.00,0.00,0.00,0.00
2013-10-12 14:30:00,2,32548,21,0.06,2,2,0,2,6614,50000,16549,40940,0,71,33,0,0.00,0.35,0.12,0.00
2013-10-12 14:40:00,2,8617,71,0.77,2,2,0,2,1629,20106,7165,6586,71,71,0,71,0.00,2.15,0.77,0.60
2013-10-12 14:50:00,2,16541,71,0.10,2,2,0,2,3163,37120,11525,13172,71,71,0,71,0.00,0.30,0.12,0.03
2013-10-12 15:00:00,2,49540,7,0.00,2,2,0,2,45483,50000,1353,50000,0,71,21,0,0.00,0.00,0.00,0.00
2013-10-12 15:10:00,2,49706,0,0.00,2,2,0,2,48676,50000,476,50000,0,0,0,0,0.00,0.00,0.00,0.00
2013-10-12 15:20:00,2,50000,0,0.00,2,2,0,2,50000,50000,0,50000,0,0,0,0,0.00,0.00,0.00,0.00
2013-10-12 15:30:00,2,50000,0,0.00,2,2,0,2,50000,50000,0,50000,0,0,0,0,0.00,0.00,0.00,0.00
2013-10-12 15:40:00,2,50000,0,0.00,2,2,0,2,50000,50000,0,50000,0,0,0,0,0.00,0.00,0.00,0.00
2013-10-12 15:50:00,2,50000,0,0.00,2,2,0,2,50000,50000,0,50000,0,0,0,0,0.00,0.00,0.00,0.00
2013-10-12 16:00:00,2,50000,0,0.00,2,2,0,2,50000,50000,0,50000,0,0,0,0,0.00,0.00,0.00,0.00
2013-10-12 16:10:00,2,50000,0,0.00,2,2,0,2,50000,50000,0,50000,0,0,0,0,0.00,0.00,0.00,0.00
2013-10-12 16:20:00,2,50000,0,0.00,2,2,0,2,50000,50000,0,50000,0,0,0,0,0.00,0.00,0.00,0.00
2013-10-12 16:30:00,2,50000,0,0.00,2,2,0,2,50000,50000,0,50000,0,0,0,0,0.00,0.00,0.00,0.00
2013-10-12 16:40:00,2,49980,0,0.00,2,2,0,2,49805,50000,58,50000,0,0,0,0,0.00,0.00,0.00,0.00
2013-10-12 16:50:00,2,50000,0,0.00,2,2,0,2,50000,50000,0,50000,0,0,0,0,0.00,0.00,0.00,0.00
2013-10-12 17:00:00,2,50000,0,0.00,2,2,0,2,50000,50000,0,50000,0,0,0,0,0.00,0.00,0.00,0.00
2013-10-12 17:10:00,2,50000,0,0.00,2,2,0,2,50000,50000,0,50000,0,0,0,0,0.00,0.00,0.00,0.00
2013-10-12 17:20:00,2,50000,0,0.00,2,2,0,2,50000,50000,0,50000,0,0,0,0,0.00,0.00,0.00,0.00
2013-10-12 17:30:00,2,50000,0,0.00,2,2,0,2,50000,50000,0,50000,0,0,0,0,0.00,0.00,0.00,0.00
2013-10-12 17:40:00,2,34908,33,0.02,2,2,0,2,13438,48837,10953,36848,0,71,30,40,0.00,0.10,0.03,0.00
2013-10-12 17:50:00,2,8797,71,0.19,2,2,0,2,6886,11705,1284,8659,71,71,0,71,0.05,0.60,0.15,0.15
2013-10-12 18:00:00,2,7492,71,0.26,2,2,0,2,4219,10478,2109,7482,71,71,0,71,0.05,0.65,0.19,0.17
2013-10-12 18:10:00,2,5057,71,0.82,2,2,0,2,2809,9836,2224,4352,71,71,0,71,0.10,1.80,0.57,0.80
2013-10-12 18:20:00,2,6447,71,0.44,2,2,0,2,3795,9299,1957,6742,71,71,0,71,0.05,1.15,0.40,0.35
2013-10-12 18:30:00,2,12986,72,0.14,2,2,0,2,6805,19401,4047,12819,71,77,2,71,0.00,0.40,0.16,0.05
2013-10-12 18:40:00,2,19109,75,0.01,2,2,0,2,13882,30065,4462,18408,71,77,3,77,0.00,0.05,0.02,0.00
2013-10-12 18:50:00,2,47640,7,0.00,2,2,0,2,38536,50000,3458,49642,0,71,21,0,0.00,0.00,0.00,0.00
2013-10-12 19:00:00,2,50000,0,0.00,2,2,0,2,50000,50000,0,50000,0,0,0,0,0.00,0.00,0.00,0.00
2013-10-12 19:10:00,2,50000,0,0.00,2,2,0,2,50000,50000,0,50000,0,0,0,0,0.00,0.00,0.00,0.00
2013-10-12 19:20:00,2,39644,0,0.00,2,2,0,2,20394,50000,10913,43620,0,0,0,0,0.00,0.00,0.00,0.00
2013-10-12 19:30:00,2,22756,0,0.00,2,2,0,2,19122,28688,3342,22103,0,0,0,0,0.00,0.00,0.00,0.00
2013-10-12 19:40:00,2,20418,0,0.00,2,2,0,2,18353,23540,1676,20175,0,0,0,0,0.00,0.00,0.00,0.00
2013-10-12 19:50:00,2,34217,0,0.00,2,2,0,2,19834,48091,9958,34184,0,0,0,0,0.00,0.00,0.00,0.00
2013-10-12 20:00:00,2,26760,0,0.00,2,2,0,2,16277,44258,9691,24971,0,0,0,0,0.00,0.00,0.00,0.00
2013-10-12 20:10:00,2,28184,0,0.00,2,2,0,2,18274,38332,7128,26612,0,0,0,0,0.00,0.00,0.00,0.00
2013-10-12 20:20:00,2,43543,0,0.00,2,2,0,2,31410,50000,6964,46328,0,0,0,0,0.00,0.00,0.00,0.00
2013-10-12 20:30:00,2,48870,0,0.00,2,2,0,2,43815,50000,2272,50000,0,0,0,0,0.00,0.00,0.00,0.00
2013-10-12 20:40:00,2,47957,0,0.00,2,2,0,2,40181,50000,3336,50000,0,0,0,0,0.00,0.00,0.00,0.00
2013-10-12 20:50:00,2,49563,0,0.00,2,2,0,2,48047,50000,764,50000,0,0,0,0,0.00,0.00,0.00,0.00
2013-10-12 21:00:00,2,49876,0,0.00,2,2,0,2,48764,50000,371,50000,0,0,0,0,0.00,0.00,0.00,0.00
2013-10-12 21:10:00,2,49864,0,0.00,2,2,0,2,49359,50000,225,50000,0,0,0,0,0.00,0.00,0.00,0.00
2013-10-12 21:20:00,2,49563,0,0.00,2,2,0,2,45757,50000,1269,50000,0,0,0,0,0.00,0.00,0.00,0.00
2013-10-12 21:30:00,2,49307,0,0.00,2,2,0,2,46670,50000,1015,49771,0,0,0,0,0.00,0.00,0.00,0.00
2013-10-12 21:40:00,2,49852,0,0.00,2,2,0,2,48520,50000,444,50000,0,0,0,0,0.00,0.00,0.00,0.00
2013-10-12 21:50:00,2,50000,0,0.00,2,2,0,2,50000,50000,0,50000,0,0,0,0,0.00,0.00,0.00,0.00
2013-10-12 22:00:00,2,41962,0,0.00,2,2,0,2,20002,50000,11435,49158,0,0,0,0,0.00,0.00,0.00,0.00
2013-10-12 22:10:00,2,31443,0,0.00,2,2,0,2,21338,42403,7670,31732,0,0,0,0,0.00,0.00,0.00,0.00
2013-10-12 22:20:00,2,43787,14,0.00,2,2,0,2,28465,50000,8140,47954,0,71,28,0,0.00,0.00,0.00,0.00
2013-10-12 22:30:00,2,36874,78,0.01,2,2,0,2,24296,46897,7042,37844,78,78,0,78,0.00,0.05,0.02,0.00
2013-10-12 22:40:00,2,33557,78,0.00,2,2,0,2,25607,41145,4997,35734,78,78,0,78,0.00,0.00,0.00,0.00
2013-10-12 22:50:00,2,49001,8,0.00,2,2,0,2,43484,50000,1968,50000,0,78,23,0,0.00,0.00,0.00,0.00
2013-10-12 23:00:00,2,49861,0,0.00,2,2,0,2,48612,50000,416,50000,0,0,0,0,0.00,0.00,0.00,0.00
2013-10-12 23:10:00,2,50000,0,0.00,2,2,0,2,50000,50000,0,50000,0,0,0,0,0.00,0.00,0.00,0.00
2013-10-12 23:20:00,2,49888,0,0.00,2,2,0,2,48878,50000,337,50000,0,0,0,0,0.00,0.00,0.00,0.00
2013-10-12 23:30:00,2,48809,0,0.00,2,2,0,2,45782,50000,1828,50000,0,0,0,0,0.00,0.00,0.00,0.00
2013-10-12 23:40:00,2,47355,0,0.00,2,2,0,2,41876,50000,3128,49196,0,0,0,0,0.00,0.00,0.00,0.00
2013-10-12 23:50:00,2,44225,0,0.00,2,2,0,2,29968,50000,6953,47942,0,0,0,0,0.00,0.00,0.00,0.00
